#timestamp,LO_Frequency,Hit 
1499889615.8,286046966.2,N
1499889635.7,286046968.4,N
1499889655.5,286046968.5,N
1499889675.3,286046968.7,N
1499889695.1,286046965.5,N
1499889715.9,286046959.7,N
1499889735.7,286046965.6,N
1499889755.5,286046964.2,N
1499889775.4,286046966.8,N
1499889795.2,286046966.9,N
1499889815.0,286046967.8,N
1499889815.9,286046967.8,N
1499889835.8,286046972.3,N
1499889855.6,286046969.8,N
1499889875.4,286046971.6,N
1499889895.3,286046967.7,N
1499889915.1,286046967.4,N
1499889916.0,286046967.4,N
1499889935.8,286046967.5,N
1499889955.7,286046966.1,N
1499889975.5,286046970.7,N
1499889995.3,286046967.7,N
1499890015.2,286046971.7,N
1499890035.9,286046975.1,N
1499890055.7,286046975.7,N
1499890075.6,286046978.2,N
1499890095.4,286046974.4,N
1499890115.2,286046974.5,N
1499890135.0,286046973.2,N
1499890135.9,286046973.2,N
1499890155.8,286046974.2,N
1499890175.6,286046975.9,N
1499890195.4,286046978.7,N
1499890215.3,286046980.1,N
1499890235.1,286046981.1,N
1499890255.8,286046982.9,N
1499890275.7,286046982.2,N
1499890295.5,286046983.2,N
1499890315.3,286046975.8,N
1499890335.2,286046969.4,N
1499890355.9,286046975.2,N
1499890375.7,286046978.6,N
1499890395.6,286046977.3,N
1499890415.4,286046979.6,N
1499890435.2,286046973.8,N
1499890455.0,286046974.4,N
1499890456.0,286046974.4,N
1499890475.8,286046972.5,N
1499890495.6,286046971.1,N
1499890515.4,286046975.6,N
1499890535.3,286046971.5,N
1499890555.1,286046968.9,N
1499890575.8,286046965.9,N
1499890595.7,286046964.5,N
1499890615.5,286046968.0,N
1499890635.3,286046972.3,N
1499890655.2,286046973.1,N
1499890675.9,286046973.9,N
1499890695.7,286046973.6,N
1499890715.6,286046973.5,N
1499890735.4,286046971.4,N
1499890755.2,286046973.8,N
1499890775.1,286046975.3,N
1499890776.0,286046975.3,N
1499890795.8,286046976.3,N
1499890815.6,286046978.8,N
1499890835.5,286046980.3,N
1499890855.3,286046979.1,N
1499890875.1,286046977.8,N
1499890895.8,286046977.3,N
1499890915.7,286046977.9,N
1499890935.5,286046979.2,N
1499890955.3,286046979.1,N
1499890975.2,286046977.7,N
1499890995.0,286046972.5,N
1499890995.9,286046972.5,N
1499891015.7,286046974.7,N
1499891035.6,286046976.7,N
1499891055.4,286046978.2,N
1499891075.2,286046970.5,N
1499891095.1,286046966.9,N
1499891096.0,286046966.9,N
1499891115.8,286046970.3,N
1499891135.6,286046973.2,N
1499891155.5,286046969.7,N
1499891175.3,286046971.7,N
1499891195.1,286046967.7,N
1499891215.9,286046972.4,N
1499891235.7,286046973.8,N
1499891255.5,286046974.3,N
1499891275.4,286046975.1,N
1499891295.2,286046975.4,N
1499891315.0,286046972.5,N
1499891315.9,286046972.5,N
1499891335.8,286046974.9,N
1499891355.6,286046976.8,N
1499891375.4,286046973.9,N
1499891395.2,286046974.0,N
1499891415.1,286046971.0,N
1499891416.0,286046971.0,N
1499891435.8,286046972.0,N
1499891455.6,286046972.7,N
1499891475.5,286046977.2,N
1499891495.3,286046975.2,N
1499891515.1,286046972.2,N
1499891535.9,286046971.8,N
1499891555.7,286046975.5,N
1499891575.5,286046977.1,N
1499891595.4,286046974.4,N
1499891615.2,286046975.8,N
1499891635.0,286046978.2,N
1499891635.9,286046978.2,N
1499891655.8,286046978.4,N
1499891675.6,286046975.4,N
1499891695.4,286046973.4,N
1499891715.3,286046975.4,N
1499891735.1,286046973.2,N
1499891736.0,286046973.2,N
1499891755.8,286046972.5,N
1499891775.7,286046970.0,N
1499891795.5,286046969.1,N
1499891815.3,286046964.2,N
1499891835.1,286046967.0,N
1499891855.9,286046968.0,N
1499891875.7,286046971.9,N
1499891895.5,286046970.4,N
1499891915.4,286046968.4,N
1499891935.2,286046969.1,N
1499891955.0,286046970.7,N
1499891955.9,286046970.7,N
1499891975.8,286046971.9,N
1499891995.6,286046967.7,N
1499892015.4,286046969.4,N
1499892035.3,286046968.0,N
1499892055.1,286046969.2,N
1499892075.8,286046966.1,N
1499892095.7,286046966.8,N
1499892115.5,286046967.6,N
1499892135.3,286046966.7,N
1499892155.2,286046964.5,N
1499892175.9,286046968.0,N
1499892195.7,286046967.3,N
1499892215.6,286046966.1,N
1499892235.4,286046965.1,N
1499892255.2,286046967.3,N
1499892275.1,286046961.4,N
1499892276.0,286046961.4,N
1499892295.8,286046963.2,N
1499892315.6,286046961.6,N
1499892335.4,286046959.1,N
1499892355.3,286046954.9,N
1499892375.1,286046958.7,N
1499892395.9,286046955.3,N
1499892415.7,286046957.7,N
1499892435.5,286046957.5,N
1499892455.3,286046953.7,N
1499892475.2,286046956.7,N
1499892495.0,286046958.6,N
1499892495.9,286046958.6,N
1499892515.7,286046959.6,N
1499892535.6,286046959.3,N
1499892555.4,286046959.7,N
1499892575.2,286046965.6,N
1499892595.1,286046963.0,N
1499892596.0,286046963.0,N
1499892615.8,286046968.8,N
1499892635.6,286046964.8,N
1499892655.5,286046964.7,N
1499892675.3,286046968.3,N
1499892695.1,286046966.6,N
1499892715.9,286046965.6,N
1499892735.7,286046964.9,N
1499892755.5,286046967.8,N
1499892775.4,286046971.4,N
1499892795.2,286046973.3,N
1499892815.0,286046972.1,N
1499892815.9,286046972.1,N
1499892835.8,286046966.8,N
1499892855.6,286046967.2,N
1499892875.4,286046969.2,N
1499892895.3,286046971.1,N
1499892915.1,286046975.4,N
1499892916.0,286046975.4,N
1499892935.8,286046973.9,N
1499892955.7,286046966.4,N
1499892975.5,286046967.8,N
1499892995.3,286046966.5,N
1499893015.1,286046966.3,N
1499893035.9,286046966.5,N
1499893055.7,286046963.1,N
1499893075.5,286046961.8,N
1499893095.4,286046964.0,N
1499893115.2,286046965.9,N
1499893135.0,286046967.9,N
1499893135.9,286046967.9,N
1499893155.8,286046970.6,N
1499893175.6,286046968.3,N
1499893195.4,286046970.1,N
